Regional Weather Roundup
Issued by NWS

Home | Current Version | Previous Version | Graphics & Text | Print | Product List | Glossary On
Versions: 1 2 3 4 5 6 7 8 9 10 11 12 13 14 15 16 17 18 19 20 21 22 23 24 25 26 27 28 29 30 31 32 33 34 35 36 37 38 39 40 41 42 43 44 45 46 47 48 49 50
000
ASUS45 KCYS 020810
RWRWY

WYOMING REGIONAL WEATHER ROUNDUP
NATIONAL WEATHER SERVICE CHEYENNE WY
200 AM MDT MON MAY 02 2016

NOTE:  "FAIR" INDICATES FEW OR NO CLOUDS BELOW 12,000 FEET
WITH NO SIGNIFICANT WEATHER AND/OR OBSTRUCTIONS TO VISIBILITY.

WYZ001-020900-
YELLOWSTONE NATIONAL PARK

CITY           SKY/WX    TMP DP  RH WIND       PRES   REMARKS
LK YELLOWSTONE   N/A     25  18  74 CALM      30.29S
W YELLOWSTONE  NOT AVBL

$$
WYZ002>013-054>058-071-098>099-020900-
NORTHERN WYOMING

CITY           SKY/WX    TMP DP  RH WIND       PRES   REMARKS
JACKSON        FAIR      34  25  69 N12       30.25S WCI  25
CODY           FAIR      43  28  56 S5        30.23S
GREYBULL       FAIR      41  29  62 SE5       30.23R
WORLAND        FAIR      39  32  76 S9        30.23S WCI  33
SHERIDAN       FAIR      35  29  78 CALM      30.21S
BUFFALO          N/A    N/A N/A N/A MISG      30.22F
GILLETTE       FAIR      34  30  85 S10       30.22F WCI  26
HULETT         FAIR      34  30  86 SW7       30.23S WCI  28
NEWCASTLE      FAIR      34  28  80 CALM      30.24S

$$
WYZ014>020-022>026-101>103-020900-
CENTRAL WYOMING

CITY           SKY/WX    TMP DP  RH WIND       PRES   REMARKS
BIG PINEY      FAIR      24  17  74 W3        30.28S
PINEDALE       FAIR      21  19  93 NW5       30.29S WCI  15
DUBOIS         NOT AVBL
LANDER         FAIR      37  20  50 SW14      30.25F WCI  28
RIVERTON       FAIR      37  25  61 W10       30.27F WCI  30
CASPER         FAIR      32  26  78 W10       30.25S WCI  24
DOUGLAS        FAIR      29  26  89 S3        30.26S

$$
WYZ021-027>030-104>119-020900-
SOUTHERN WYOMING

CITY           SKY/WX    TMP DP  RH WIND       PRES   REMARKS
EVANSTON       FAIR      31  22  69 E12       30.23S WCI  22
KEMMERER         N/A     30  23  74 E8        30.26S WCI  23
FORT BRIDGER   SUNNY     28  27  93 E7        30.28S WCI  21
ROCK SPRINGS   FAIR      30  22  72 CALM      30.26R
DIXON          FAIR      30  20  66 CALM      30.23S
RAWLINS        FAIR      28  20  71 N9        30.26S WCI  19
SARATOGA       FAIR      23  19  86 SE8       30.25F WCI  14
LARAMIE        FAIR      19  16  88 S7        30.26F WCI  10
CHEYENNE       FAIR      28  20  71 W12       30.25F WCI  18
TORRINGTON     FAIR      32  29  88 N5        30.24F WCI  27
PINE BLUFFS    FAIR      27  25  93 CALM      30.27S

$$



USA.gov is the U.S. government's official web portal to all federal, state and local government web resources and services.